Lincoln, NE

6:25 PM CDT on August 24, 2016 (GMT -0500)
Lincoln Municipal

Weather History for KLNK - April, 2014

Change the Weather History Date:

Saturday, April 12, 2014

  Actual Average Record
Temperature  
Mean Temperature 70 °F 50 °F  
Max Temperature 85 °F 63 °F 86 °F (1916)
Min Temperature 55 °F 37 °F 17 °F (1990)
Degree Days  
Heating Degree Days 0 15  
Month to date heating degree days 187 203  
Since 1 July heating degree days 6161 5679  
Cooling Degree Days 5 0  
Month to date cooling degree days 5 0  
Year to date cooling degree days 5 1  
Growing Degree Days 20 (Base 50)    
Moisture  
Dew Point 51 °F    
Average Humidity 56    
Maximum Humidity 78    
Minimum Humidity 34    
Precipitation  
Precipitation 0.00 in 0.08 in 1.03 in (1991)
Month to date precipitation 0.34 0.89  
Year to date precipitation 1.33 4.23  
Snow  
Snow 0.00 in 0.10 in - ()
Month to date snowfall T 0.9  
Since 1 July snowfall 17.7 25.4  
Snow Depth 0.00 in    
Sea Level Pressure  
Sea Level Pressure 29.59 in    
Wind  
Wind Speed 12 mph (SW)    
Max Wind Speed 21 mph    
Max Gust Speed 27 mph    
Visibility 9 miles    
Events      
T = Trace of Precipitation, MM = Missing Value Source: NWS Daily Summary

Daily Weather History Graph

Daily Weather History Graph

Search for Another Location

Airport or City:

Trip Planner

Search our weather history database for the weather conditions in past years. The results will help you decide how hot, cold, wet, or windy it might be!

Date:

Astronomy

Apr. 12, 2014 Rise Set
Actual Time 6:52 AM CDT 8:03 PM CDT
Civil Twilight 6:24 AM CDT 8:31 PM CDT
Nautical Twilight 5:50 AM CDT 9:05 PM CDT
Astronomical Twilight 5:15 AM CDT 9:41 PM CDT
Moon 5:42 PM CDT (4/12) 5:21 AM CDT (4/12)
Length of Visible Light 14h 07m
Length of Day
13h 10m
Waxing Gibbous, 93% of the Moon is Illuminated
Apr 12
Waxing Gibbous
Apr 15
Full
Apr 22
Last Quarter
Apr 29
New
May 6
First Quarter

Hourly Weather History & Observations

Time (CDT) Temp. Heat Index Dew Point Humidity Pressure Visibility Wind Dir Wind Speed Gust Speed Precip Events Conditions
12:54 AM 63.0 °F - 36.0 °F 37% 29.76 in 8.0 mi South 15.0 mph - N/A   Overcast
1:54 AM 59.0 °F - 37.0 °F 44% 29.73 in 8.0 mi South 12.7 mph - N/A   Overcast
2:54 AM 55.0 °F - 39.0 °F 55% 29.71 in 6.0 mi South 9.2 mph - N/A   Haze
3:54 AM 62.1 °F - 48.9 °F 62% 29.67 in 4.0 mi South 13.8 mph - N/A   Haze
4:54 AM 64.0 °F - 53.1 °F 67% 29.64 in 6.0 mi South 15.0 mph - N/A   Haze
5:54 AM 63.0 °F - 53.1 °F 70% 29.64 in 7.0 mi South 12.7 mph - N/A   Clear
6:54 AM 62.1 °F - 54.0 °F 75% 29.62 in 8.0 mi South 13.8 mph - N/A   Clear
7:54 AM 63.0 °F - 55.0 °F 75% 29.64 in 8.0 mi SSW 12.7 mph - N/A   Clear
8:54 AM 66.0 °F - 55.9 °F 70% 29.63 in 9.0 mi SSW 13.8 mph - N/A   Clear
9:54 AM 68.0 °F - 55.9 °F 65% 29.63 in 9.0 mi SW 12.7 mph - N/A   Clear
10:54 AM 73.0 °F - 55.0 °F 53% 29.63 in 10.0 mi WSW 11.5 mph - N/A   Clear
11:54 AM 73.9 °F - 54.0 °F 50% 29.62 in 10.0 mi SW 12.7 mph - N/A   Clear
12:54 PM 78.1 °F - 55.0 °F 45% 29.57 in 9.0 mi South 5.8 mph - N/A   Clear
1:54 PM 82.9 °F 82.0 °F 55.0 °F 38% 29.53 in 10.0 mi SSW 9.2 mph - N/A   Clear
2:54 PM 82.9 °F - 52.0 °F 34% 29.52 in 10.0 mi South 17.3 mph - N/A   Clear
3:54 PM 82.9 °F 81.9 °F 54.0 °F 37% 29.49 in 10.0 mi South 12.7 mph - N/A   Mostly Cloudy
4:54 PM 82.9 °F - 52.0 °F 34% 29.48 in 10.0 mi WSW 9.2 mph - N/A   Partly Cloudy
5:54 PM 82.0 °F 81.2 °F 53.1 °F 37% 29.49 in 10.0 mi West 12.7 mph - N/A   Clear
6:54 PM 81.0 °F 80.4 °F 53.1 °F 38% 29.49 in 10.0 mi WSW 10.4 mph - N/A   Clear
7:54 PM 78.1 °F - 52.0 °F 40% 29.48 in 10.0 mi West 5.8 mph - N/A   Clear
8:54 PM 73.0 °F - 50.0 °F 44% 29.48 in 10.0 mi WNW 8.1 mph - N/A   Clear
9:54 PM 63.0 °F - 48.9 °F 60% 29.52 in 10.0 mi North 6.9 mph - N/A   Clear
10:54 PM 68.0 °F - 48.9 °F 50% 29.51 in 10.0 mi NNW 13.8 mph - N/A   Clear
11:54 PM 64.0 °F - 48.9 °F 58% 29.54 in 7.0 mi North 16.1 mph - N/A   Clear